Location: LewisvilleTX
(33.0462°N, 96.9942°W)
Time: 07:38:10
(UTC+00:00)

Envisat - Pass Details

Date: 02 October 2021
Orbit: 764 x 766 km, 98.2° (Epoch: 25 October)

Event Time Altitude Azimuth Distance (km) Brightness Sun altitude
Rises 11:20:19 0° 15° (NNE) 3,233 6.5 -14.0°
Reaches altitude 10° 11:22:39 10° 18° (NNE) 2,304 5.8 -13.5°
Maximum altitude 11:27:42 67° 101° (E) 826 3.4 -12.4°
Drops below altitude 10° 11:32:43 10° 184° (S) 2,290 5.4 -11.4°
Sets 11:35:01 0° 187° (S) 3,212 6.1 -10.9°
